NKS833 KFLL-MKJS

Flight info

Callsign NKS833
Flight time 1h 23m
Altitude 33000
Route REGAE2 URSUS UL780 LEPEG/N0460F350 UL780 TASNO UM221 NIBEO DCT ADSEL LENAR7
Aircraft A321/M-SDE3FGHIRWY/LB1

Departure

Time 2026-05-04 00:35
Airport Fort Lauderdale Hollywood International Airport (KFLL)

Arrival

Time 2026-05-04 01:59
Airport Sangster International Airport (MKJS)
Time Latitude Longitude Altitude Speed Heading
2026-05-04 00:08 26.06924 -80.14141 16 ft 0 kts 297°
2026-05-04 00:22 26.06921 -80.14134 16 ft 4 kts 300°
2026-05-04 00:22 26.06908 -80.14113 16 ft 4 kts 299°
2026-05-04 00:22 26.06903 -80.14092 18 ft 4 kts 229°
2026-05-04 00:22 26.06923 -80.14083 19 ft 4 kts 180°
2026-05-04 00:23 26.06949 -80.14082 17 ft 2 kts 180°
2026-05-04 00:23 26.06951 -80.14082 16 ft 0 kts 180°
2026-05-04 00:26 26.06945 -80.14082 16 ft 1 kts 180°
2026-05-04 00:26 26.06938 -80.14082 18 ft 2 kts 180°
2026-05-04 00:26 26.06922 -80.14082 16 ft 3 kts 180°
2026-05-04 00:26 26.06907 -80.14082 16 ft 1 kts 180°
2026-05-04 00:27 26.06900 -80.14082 16 ft 1 kts 180°
2026-05-04 00:27 26.06892 -80.14082 16 ft 0 kts 180°
2026-05-04 00:28 26.06885 -80.14082 16 ft 6 kts 181°
2026-05-04 00:28 26.06817 -80.14139 16 ft 11 kts 258°
2026-05-04 00:28 26.06817 -80.14148 16 ft 0 kts 266°
2026-05-04 00:29 26.06817 -80.14154 16 ft 4 kts 267°
2026-05-04 00:29 26.06816 -80.14191 16 ft 9 kts 268°
2026-05-04 00:29 26.06787 -80.14276 16 ft 15 kts 238°
2026-05-04 00:30 26.06770 -80.14370 15 ft 0 kts 269°
2026-05-04 00:30 26.06770 -80.14372 16 ft 2 kts 269°
2026-05-04 00:30 26.06771 -80.14449 16 ft 15 kts 270°
2026-05-04 00:30 26.06765 -80.14564 15 ft 15 kts 268°
2026-05-04 00:31 26.06766 -80.14686 15 ft 16 kts 270°
2026-05-04 00:31 26.06767 -80.14811 15 ft 15 kts 270°
2026-05-04 00:31 26.06768 -80.14920 15 ft 14 kts 270°
2026-05-04 00:31 26.06769 -80.15032 16 ft 15 kts 271°
2026-05-04 00:32 26.06737 -80.15128 18 ft 12 kts 205°
2026-05-04 00:32 26.06695 -80.15186 21 ft 10 kts 266°
2026-05-04 00:32 26.06696 -80.15302 16 ft 23 kts 272°
2026-05-04 00:32 26.06698 -80.15471 16 ft 19 kts 269°
2026-05-04 00:33 26.06698 -80.15619 16 ft 19 kts 270°
2026-05-04 00:33 26.06683 -80.15809 17 ft 0 kts 227°
2026-05-04 00:34 26.06676 -80.15814 17 ft 6 kts 214°
2026-05-04 00:34 26.06589 -80.15797 18 ft 15 kts 128°
2026-05-04 00:34 26.06588 -80.15697 21 ft 19 kts 89°
2026-05-04 00:35 26.06587 -80.15278 22 ft 90 kts 90°
2026-05-04 00:35 26.06583 -80.14337 50 ft 149 kts 90°
2026-05-04 00:35 26.06581 -80.13090 512 ft 160 kts 87°
2026-05-04 00:35 26.06601 -80.11859 1265 ft 159 kts 86°
2026-05-04 00:36 26.06633 -80.10575 1715 ft 173 kts 86°
2026-05-04 00:36 26.06685 -80.09197 2049 ft 186 kts 88°
2026-05-04 00:36 26.06706 -80.07676 2210 ft 207 kts 89°
2026-05-04 00:36 26.06713 -80.06006 2353 ft 224 kts 89°
2026-05-04 00:37 26.06719 -80.04228 2545 ft 238 kts 90°
2026-05-04 00:37 26.06726 -80.02344 2836 ft 252 kts 90°
2026-05-04 00:37 26.06735 -80.00331 3227 ft 268 kts 90°
2026-05-04 00:37 26.06725 -79.98228 3837 ft 275 kts 91°
2026-05-04 00:38 26.06699 -79.96081 4524 ft 280 kts 91°
2026-05-04 00:38 26.06671 -79.93889 5163 ft 287 kts 91°
2026-05-04 00:38 26.06646 -79.91620 5832 ft 291 kts 91°
2026-05-04 00:38 26.06618 -79.89380 6472 ft 296 kts 92°
2026-05-04 00:39 26.06591 -79.87076 7098 ft 300 kts 91°
2026-05-04 00:39 26.06568 -79.84742 7746 ft 304 kts 91°
2026-05-04 00:39 26.06452 -79.82390 8372 ft 306 kts 101°
2026-05-04 00:39 26.06090 -79.80043 9017 ft 310 kts 101°
2026-05-04 00:40 26.05718 -79.77669 9678 ft 313 kts 102°
2026-05-04 00:40 26.05344 -79.75275 10231 ft 320 kts 102°
2026-05-04 00:40 26.04947 -79.72748 10352 ft 342 kts 102°
2026-05-04 00:40 26.04525 -79.70058 10490 ft 363 kts 102°
2026-05-04 00:41 26.04085 -79.67255 10889 ft 372 kts 102°
2026-05-04 00:41 26.03609 -79.64415 11433 ft 376 kts 106°
2026-05-04 00:41 26.02941 -79.61591 11995 ft 379 kts 107°
2026-05-04 00:41 26.02259 -79.58753 12568 ft 382 kts 107°
2026-05-04 00:42 26.01566 -79.55883 13140 ft 385 kts 108°
2026-05-04 00:42 26.00554 -79.53132 13676 ft 385 kts 123°
2026-05-04 00:42 25.98991 -79.50737 14173 ft 382 kts 137°
2026-05-04 00:42 25.96979 -79.48836 14662 ft 379 kts 152°
2026-05-04 00:43 25.94643 -79.47531 15162 ft 375 kts 165°
2026-05-04 00:43 25.92126 -79.46846 15667 ft 372 kts 174°
2026-05-04 00:43 25.89572 -79.46321 16197 ft 375 kts 174°
2026-05-04 00:43 25.86996 -79.45897 16684 ft 373 kts 181°
2026-05-04 00:44 25.84419 -79.46016 17184 ft 370 kts 193°
2026-05-04 00:44 25.81940 -79.46721 17694 ft 367 kts 205°
2026-05-04 00:44 25.79660 -79.47963 18209 ft 364 kts 216°
2026-05-04 00:44 25.77538 -79.49508 18679 ft 366 kts 217°
2026-05-04 00:45 25.75438 -79.51039 19139 ft 367 kts 217°
2026-05-04 00:45 25.73265 -79.52615 19611 ft 369 kts 217°
2026-05-04 00:45 25.71135 -79.54153 20074 ft 371 kts 217°
2026-05-04 00:45 25.68970 -79.55716 20543 ft 373 kts 217°
2026-05-04 00:46 25.66863 -79.57389 20997 ft 372 kts 221°
2026-05-04 00:46 25.64825 -79.59175 21453 ft 374 kts 222°
2026-05-04 00:46 25.62786 -79.60970 21901 ft 376 kts 222°
2026-05-04 00:46 25.60734 -79.62777 22337 ft 377 kts 222°
2026-05-04 00:47 25.58673 -79.64585 22766 ft 379 kts 222°
2026-05-04 00:47 25.56597 -79.66395 23136 ft 381 kts 222°
2026-05-04 00:47 25.54507 -79.68221 23521 ft 384 kts 222°
2026-05-04 00:47 25.52406 -79.70051 23859 ft 385 kts 222°
2026-05-04 00:48 25.50297 -79.71890 24200 ft 387 kts 222°
2026-05-04 00:48 25.48185 -79.73741 24531 ft 388 kts 222°
2026-05-04 00:48 25.46064 -79.75598 24864 ft 389 kts 222°
2026-05-04 00:48 25.43934 -79.77458 25200 ft 391 kts 222°
2026-05-04 00:49 25.41798 -79.79320 25528 ft 392 kts 222°
2026-05-04 00:49 25.39625 -79.81148 25872 ft 395 kts 217°
2026-05-04 00:49 25.37153 -79.82538 26195 ft 404 kts 205°
2026-05-04 00:49 25.34388 -79.83280 26495 ft 416 kts 193°
2026-05-04 00:50 25.31446 -79.83282 26797 ft 431 kts 180°
2026-05-04 00:50 25.28483 -79.82523 27048 ft 442 kts 171°
2026-05-04 00:50 25.25519 -79.81563 27284 ft 446 kts 171°
2026-05-04 00:50 25.22534 -79.80598 27537 ft 448 kts 171°
2026-05-04 00:51 25.19536 -79.79631 27816 ft 450 kts 171°
2026-05-04 00:51 25.16525 -79.78663 28049 ft 452 kts 171°
2026-05-04 00:51 25.13493 -79.77697 28301 ft 454 kts 171°
2026-05-04 00:51 25.10452 -79.76730 28562 ft 456 kts 171°
2026-05-04 00:52 25.07395 -79.75759 28822 ft 458 kts 171°
2026-05-04 00:52 25.04333 -79.74787 29086 ft 459 kts 171°
2026-05-04 00:52 25.01255 -79.73809 29344 ft 461 kts 171°
2026-05-04 00:52 24.98165 -79.72826 29604 ft 463 kts 171°
2026-05-04 00:53 24.95072 -79.71841 29864 ft 464 kts 170°
2026-05-04 00:53 24.91971 -79.70853 30156 ft 465 kts 169°
2026-05-04 00:53 24.88916 -79.69601 30378 ft 473 kts 161°
2026-05-04 00:53 24.86032 -79.67823 30666 ft 479 kts 153°
2026-05-04 00:54 24.83228 -79.65832 30981 ft 478 kts 153°
2026-05-04 00:54 24.80442 -79.63856 31283 ft 477 kts 153°
2026-05-04 00:54 24.77646 -79.61880 31584 ft 477 kts 154°
2026-05-04 00:54 24.74852 -79.59912 31886 ft 476 kts 154°
2026-05-04 00:55 24.72066 -79.57958 32196 ft 475 kts 154°
2026-05-04 00:55 24.69316 -79.56032 32484 ft 475 kts 154°
2026-05-04 00:55 24.66539 -79.54084 32781 ft 474 kts 154°
2026-05-04 00:55 24.63754 -79.52129 32952 ft 475 kts 153°
2026-05-04 00:56 24.60976 -79.50181 33021 ft 471 kts 153°
2026-05-04 00:56 24.55490 -79.46326 33027 ft 466 kts 153°
2026-05-04 00:57 24.50026 -79.42493 33025 ft 466 kts 154°
2026-05-04 00:57 24.44567 -79.38672 33027 ft 465 kts 154°
2026-05-04 00:58 24.39110 -79.34859 33027 ft 465 kts 154°
2026-05-04 00:58 24.33651 -79.31050 33030 ft 465 kts 154°
2026-05-04 00:59 24.28196 -79.27225 33034 ft 466 kts 153°
2026-05-04 00:59 24.22766 -79.23332 33037 ft 466 kts 153°
2026-05-04 01:00 24.17354 -79.19407 33042 ft 466 kts 153°
2026-05-04 01:00 24.11937 -79.15512 33044 ft 466 kts 153°
2026-05-04 01:01 24.06505 -79.11629 33045 ft 466 kts 153°
2026-05-04 01:01 24.00858 -79.08343 33044 ft 453 kts 167°
2026-05-04 01:02 23.94824 -79.07107 33008 ft 439 kts 185°
2026-05-04 01:02 23.88738 -79.07240 33008 ft 439 kts 187°
2026-05-04 01:03 23.82621 -79.07380 33012 ft 440 kts 186°
2026-05-04 01:03 23.76487 -79.07501 33017 ft 441 kts 186°
2026-05-04 01:04 23.70355 -79.07630 33023 ft 441 kts 187°
2026-05-04 01:04 23.64218 -79.07775 33005 ft 442 kts 187°
2026-05-04 01:05 23.58058 -79.07918 33013 ft 444 kts 187°
2026-05-04 01:05 23.51876 -79.08051 33019 ft 445 kts 187°
2026-05-04 01:06 23.45684 -79.08189 33026 ft 445 kts 187°
2026-05-04 01:06 23.39486 -79.08331 33034 ft 446 kts 187°
2026-05-04 01:07 23.33283 -79.08474 33033 ft 446 kts 187°
2026-05-04 01:07 23.27082 -79.08612 33046 ft 446 kts 187°
2026-05-04 01:08 23.20885 -79.08747 33050 ft 445 kts 187°
2026-05-04 01:08 23.14691 -79.08879 33051 ft 445 kts 187°
2026-05-04 01:09 23.08535 -79.09017 33055 ft 445 kts 187°
2026-05-04 01:09 23.02343 -79.09152 33026 ft 445 kts 187°
2026-05-04 01:10 22.96150 -79.09295 33026 ft 445 kts 187°
2026-05-04 01:10 22.89948 -79.09437 33039 ft 446 kts 187°
2026-05-04 01:11 22.83747 -79.09574 33040 ft 446 kts 187°
2026-05-04 01:11 22.77542 -79.09708 33045 ft 446 kts 187°
2026-05-04 01:12 22.71338 -79.09841 33026 ft 446 kts 187°
2026-05-04 01:12 22.65131 -79.09978 33033 ft 446 kts 187°
2026-05-04 01:13 22.58922 -79.10111 33037 ft 446 kts 187°
2026-05-04 01:13 22.52709 -79.10248 33042 ft 446 kts 187°
2026-05-04 01:14 22.46499 -79.10384 33046 ft 447 kts 187°
2026-05-04 01:14 22.40282 -79.10521 33026 ft 447 kts 187°
2026-05-04 01:15 22.34055 -79.10653 33033 ft 448 kts 187°
2026-05-04 01:15 22.27811 -79.10790 33038 ft 450 kts 187°
2026-05-04 01:16 22.21546 -79.10927 33043 ft 450 kts 187°
2026-05-04 01:16 22.15284 -79.11067 33048 ft 451 kts 187°
2026-05-04 01:17 22.08985 -79.10280 33032 ft 461 kts 174°
2026-05-04 01:17 22.02704 -79.08870 33059 ft 461 kts 174°
2026-05-04 01:18 21.96423 -79.07472 33067 ft 461 kts 174°
2026-05-04 01:18 21.90149 -79.06082 33064 ft 461 kts 174°
2026-05-04 01:19 21.84930 -79.04926 33069 ft 460 kts 174°
2026-05-04 01:19 21.77639 -79.03311 33070 ft 460 kts 174°
2026-05-04 01:20 21.71378 -79.01925 33059 ft 459 kts 173°
2026-05-04 01:20 21.65115 -79.00546 33055 ft 459 kts 173°
2026-05-04 01:21 21.60311 -78.99487 33055 ft 459 kts 173°
2026-05-04 01:21 21.54013 -78.98097 33053 ft 459 kts 173°
2026-05-04 01:22 21.47802 -78.96738 33055 ft 459 kts 174°
2026-05-04 01:22 21.41553 -78.95364 33035 ft 458 kts 173°
2026-05-04 01:23 21.35310 -78.93982 33043 ft 458 kts 173°
2026-05-04 01:23 21.29065 -78.92610 33044 ft 458 kts 173°
2026-05-04 01:24 21.22818 -78.91245 33045 ft 458 kts 173°
2026-05-04 01:24 21.16572 -78.89884 33042 ft 458 kts 173°
2026-05-04 01:25 21.10329 -78.88515 33043 ft 458 kts 173°
2026-05-04 01:25 21.04080 -78.87143 33045 ft 458 kts 173°
2026-05-04 01:26 20.97833 -78.85779 33042 ft 458 kts 173°
2026-05-04 01:26 20.91585 -78.84417 33045 ft 458 kts 173°
2026-05-04 01:27 20.85335 -78.83045 33046 ft 459 kts 173°
2026-05-04 01:27 20.79082 -78.81676 33047 ft 459 kts 173°
2026-05-04 01:28 20.72833 -78.80315 33038 ft 458 kts 173°
2026-05-04 01:28 20.66584 -78.78964 33044 ft 458 kts 173°
2026-05-04 01:29 20.60341 -78.77601 33050 ft 458 kts 173°
2026-05-04 01:29 20.54096 -78.76239 33051 ft 458 kts 173°
2026-05-04 01:30 20.47853 -78.74883 33049 ft 458 kts 173°
2026-05-04 01:30 20.41602 -78.73529 33039 ft 458 kts 172°
2026-05-04 01:31 20.35352 -78.72174 33049 ft 459 kts 172°
2026-05-04 01:31 20.29135 -78.70824 33053 ft 459 kts 172°
2026-05-04 01:32 20.22878 -78.69472 33052 ft 459 kts 172°
2026-05-04 01:32 20.16617 -78.68120 33055 ft 459 kts 172°
2026-05-04 01:33 20.10361 -78.66773 33043 ft 458 kts 172°
2026-05-04 01:33 20.04113 -78.65426 33046 ft 458 kts 172°
2026-05-04 01:34 19.97874 -78.64089 32815 ft 452 kts 172°
2026-05-04 01:34 19.94799 -78.63451 32567 ft 448 kts 172°
2026-05-04 01:34 19.91751 -78.62837 32285 ft 443 kts 173°
2026-05-04 01:34 19.88728 -78.62236 31783 ft 441 kts 173°
2026-05-04 01:35 19.85727 -78.61641 31294 ft 438 kts 173°
2026-05-04 01:35 19.82740 -78.61046 30798 ft 436 kts 173°
2026-05-04 01:35 19.79768 -78.60449 30304 ft 434 kts 173°
2026-05-04 01:35 19.76812 -78.59850 29761 ft 431 kts 172°
2026-05-04 01:36 19.73878 -78.59252 29296 ft 427 kts 172°
2026-05-04 01:36 19.70976 -78.58663 28818 ft 423 kts 172°
2026-05-04 01:36 19.68099 -78.58082 28348 ft 419 kts 172°
2026-05-04 01:36 19.65246 -78.57509 27891 ft 415 kts 172°
2026-05-04 01:37 19.62419 -78.56940 27445 ft 412 kts 172°
2026-05-04 01:37 19.59616 -78.56378 27003 ft 409 kts 172°
2026-05-04 01:37 19.56828 -78.55819 26573 ft 406 kts 172°
2026-05-04 01:37 19.54057 -78.55264 26139 ft 404 kts 172°
2026-05-04 01:38 19.51303 -78.54712 25722 ft 402 kts 172°
2026-05-04 01:38 19.48556 -78.54163 25284 ft 401 kts 172°
2026-05-04 01:38 19.45823 -78.53616 24870 ft 399 kts 172°
2026-05-04 01:38 19.43097 -78.53067 24449 ft 398 kts 171°
2026-05-04 01:39 19.40379 -78.52521 24015 ft 397 kts 171°
2026-05-04 01:39 19.37667 -78.51977 23576 ft 396 kts 171°
2026-05-04 01:39 19.34999 -78.51440 23097 ft 395 kts 171°
2026-05-04 01:39 19.32312 -78.50898 22644 ft 392 kts 171°
2026-05-04 01:40 19.29643 -78.50361 22199 ft 389 kts 171°
2026-05-04 01:40 19.26993 -78.49829 21749 ft 386 kts 171°
2026-05-04 01:40 19.24363 -78.49302 21278 ft 384 kts 171°
2026-05-04 01:40 19.21742 -78.48779 20829 ft 382 kts 171°
2026-05-04 01:41 19.19143 -78.48256 20372 ft 379 kts 170°
2026-05-04 01:41 19.16556 -78.47735 19911 ft 377 kts 170°
2026-05-04 01:41 19.13986 -78.47220 19457 ft 375 kts 170°
2026-05-04 01:41 19.11428 -78.46707 18997 ft 373 kts 170°
2026-05-04 01:42 19.08885 -78.46199 18541 ft 371 kts 169°
2026-05-04 01:42 19.06351 -78.45693 18056 ft 369 kts 169°
2026-05-04 01:42 19.03837 -78.45191 17585 ft 366 kts 169°
2026-05-04 01:42 19.01343 -78.44695 17139 ft 363 kts 169°
2026-05-04 01:43 18.98876 -78.44200 16695 ft 359 kts 169°
2026-05-04 01:43 18.96485 -78.43493 16248 ft 356 kts 157°
2026-05-04 01:43 18.94336 -78.42217 15801 ft 354 kts 143°
2026-05-04 01:43 18.92546 -78.40456 15355 ft 351 kts 133°
2026-05-04 01:44 18.90894 -78.38563 14916 ft 349 kts 133°
2026-05-04 01:44 18.89250 -78.36687 14481 ft 347 kts 133°
2026-05-04 01:44 18.87608 -78.34821 14053 ft 346 kts 133°
2026-05-04 01:44 18.85972 -78.32969 13585 ft 344 kts 133°
2026-05-04 01:45 18.84345 -78.31125 13151 ft 341 kts 132°
2026-05-04 01:45 18.82737 -78.29301 12730 ft 338 kts 132°
2026-05-04 01:45 18.79578 -78.25718 11897 ft 333 kts 132°
2026-05-04 01:46 18.78006 -78.23937 11485 ft 330 kts 132°
2026-05-04 01:46 18.76445 -78.22171 11076 ft 328 kts 132°
2026-05-04 01:46 18.74892 -78.20415 10669 ft 326 kts 132°
2026-05-04 01:46 18.73348 -78.18670 10254 ft 324 kts 133°
2026-05-04 01:47 18.71828 -78.16953 10088 ft 314 kts 132°
2026-05-04 01:47 18.70366 -78.15298 9947 ft 303 kts 132°
2026-05-04 01:47 18.68942 -78.13685 9666 ft 298 kts 132°
2026-05-04 01:47 18.67527 -78.12086 9255 ft 298 kts 132°
2026-05-04 01:48 18.66119 -78.10497 8885 ft 296 kts 132°
2026-05-04 01:48 18.64717 -78.08914 8532 ft 294 kts 132°
2026-05-04 01:48 18.63127 -78.07597 8181 ft 292 kts 157°
2026-05-04 01:48 18.61141 -78.07306 7820 ft 292 kts 189°
2026-05-04 01:49 18.59305 -78.08153 7434 ft 291 kts 216°
2026-05-04 01:49 18.57722 -78.09495 7031 ft 292 kts 217°
2026-05-04 01:49 18.56010 -78.10639 6677 ft 291 kts 205°
2026-05-04 01:49 18.54144 -78.11338 6422 ft 274 kts 192°
2026-05-04 01:50 18.52337 -78.11649 6243 ft 256 kts 181°
2026-05-04 01:50 18.50587 -78.11595 6029 ft 249 kts 173°
2026-05-04 01:50 18.48869 -78.11424 5719 ft 248 kts 172°
2026-05-04 01:50 18.47157 -78.11243 5417 ft 246 kts 172°
2026-05-04 01:51 18.45454 -78.11065 5153 ft 246 kts 172°
2026-05-04 01:51 18.43751 -78.10892 4913 ft 246 kts 172°
2026-05-04 01:51 18.42050 -78.10724 4697 ft 245 kts 172°
2026-05-04 01:51 18.40354 -78.10835 4484 ft 246 kts 197°
2026-05-04 01:52 18.38938 -78.11793 4285 ft 248 kts 229°
2026-05-04 01:52 18.38028 -78.13330 4076 ft 248 kts 244°
2026-05-04 01:52 18.37278 -78.14964 3845 ft 247 kts 246°
2026-05-04 01:52 18.36824 -78.16691 3624 ft 247 kts 270°
2026-05-04 01:53 18.37250 -78.18393 3500 ft 243 kts 304°
2026-05-04 01:53 18.38471 -78.19550 3509 ft 238 kts 340°
2026-05-04 01:53 18.40067 -78.19644 3507 ft 231 kts 20°
2026-05-04 01:53 18.41310 -78.18645 3505 ft 227 kts 59°
2026-05-04 01:54 18.41632 -78.17044 3505 ft 229 kts 94°
2026-05-04 01:54 18.41467 -78.15374 3508 ft 230 kts 94°
2026-05-04 01:54 18.41323 -78.13754 3492 ft 213 kts 93°
2026-05-04 01:54 18.41426 -78.12275 3512 ft 198 kts 75°
2026-05-04 01:55 18.41866 -78.10913 3503 ft 196 kts 68°
2026-05-04 01:55 18.42410 -78.09592 3494 ft 196 kts 65°
2026-05-04 01:55 18.42976 -78.08283 3490 ft 197 kts 65°
2026-05-04 01:55 18.43547 -78.06973 3496 ft 197 kts 65°
2026-05-04 01:56 18.44117 -78.05669 3488 ft 196 kts 65°
2026-05-04 01:56 18.44694 -78.04347 3050 ft 200 kts 65°
2026-05-04 01:56 18.45277 -78.03014 2549 ft 200 kts 65°
2026-05-04 01:56 18.45847 -78.01707 1992 ft 192 kts 65°
2026-05-04 01:57 18.46391 -78.00461 1642 ft 182 kts 64°
2026-05-04 01:57 18.46896 -77.99302 1389 ft 168 kts 64°
2026-05-04 01:57 18.47378 -77.98198 1177 ft 164 kts 64°
2026-05-04 01:57 18.47846 -77.97124 974 ft 156 kts 64°
2026-05-04 01:58 18.48294 -77.96097 766 ft 153 kts 65°
2026-05-04 01:58 18.48745 -77.95088 569 ft 152 kts 65°
2026-05-04 01:58 18.49185 -77.94077 452 ft 152 kts 68°
2026-05-04 01:58 18.49622 -77.93059 250 ft 153 kts 66°
2026-05-04 01:59 18.50062 -77.92042 31 ft 149 kts 66°
2026-05-04 01:59 18.50437 -77.91172 11 ft 99 kts 65°
2026-05-04 01:59 18.50615 -77.90765 13 ft 46 kts 65°
2026-05-04 01:59 18.50741 -77.90467 11 ft 44 kts 66°
2026-05-04 02:00 18.50837 -77.90241 10 ft 17 kts 72°
2026-05-04 02:00 18.50764 -77.90184 11 ft 15 kts 195°
2026-05-04 02:00 18.50667 -77.90231 11 ft 16 kts 219°
2026-05-04 02:00 18.50616 -77.90332 12 ft 16 kts 246°
2026-05-04 02:01 18.50569 -77.90442 12 ft 17 kts 245°
2026-05-04 02:01 18.50519 -77.90555 11 ft 17 kts 245°
2026-05-04 02:01 18.50465 -77.90674 11 ft 18 kts 245°
2026-05-04 02:01 18.50413 -77.90799 11 ft 19 kts 246°
2026-05-04 02:02 18.50357 -77.90933 13 ft 21 kts 246°
2026-05-04 02:02 18.50296 -77.91074 10 ft 22 kts 245°
2026-05-04 02:02 18.50233 -77.91220 10 ft 22 kts 245°
2026-05-04 02:02 18.50169 -77.91318 10 ft 10 kts 175°
2026-05-04 02:03 18.50100 -77.91316 10 ft 10 kts 199°
2026-05-04 02:03 18.50066 -77.91339 10 ft 6 kts 221°
2026-05-04 02:03 18.50028 -77.91365 10 ft 7 kts 196°
2026-05-04 02:03 18.50005 -77.91368 10 ft 0 kts 186°